Regional Weather Roundup
Issued by NWS Green Bay, WI

Home | Current Version | Previous Version | Text Only | Print | Product List | Glossary On
Versions: 1 2 3 4 5 6 7 8 9 10 11 12 13 14 15 16 17 18 19 20 21 22 23 24 25 26 27 28 29 30 31 32 33 34 35 36 37 38 39 40 41 42 43 44 45 46 47 48 49 50
000
ASUS43 KGRB 050111
RWRGRB

NORTH-CENTRAL AND NORTHEAST WISCONSIN REGIONAL WEATHER ROUNDUP
NATIONAL WEATHER SERVICE GREEN BAY WI
700 PM CST SUN DEC 04 2016

WIZ005-009-010>012-018-019-050200-
NORTH CENTRAL WISCONSIN

CITY           SKY/WX    TMP DP  RH WIND       PRES   REMARKS
IRONWOOD       CLOUDY    31  28  89 S7        29.71F
MANITOWISH WTR CLOUDY    29  29 100 S9        29.71F
ARBOR VITAE    CLOUDY    32  30  94 SW10      29.72F FOG
EAGLE RIVER    LGT SNOW  28  28 100 S3        29.72F
LAND O LAKES   LGT SNOW  29  28  96 S5        29.73F
RHINELANDER    CLOUDY    30  28  92 S9        29.74F FOG
PHILLIPS       CLOUDY    29  29 100 S7        29.72F FOG
ANTIGO         LGT SNOW  28  27  97 S8        29.76F
TOMAHAWK       CLOUDY    29  28  95 S3        29.75F FOG
MERRILL        CLOUDY    30  30  99 SW8       29.76F FOG
$$

WIZ013-073-050200-
NORTHEAST WISCONSIN

CITY           SKY/WX    TMP DP  RH WIND       PRES   REMARKS
IRON MOUNTAIN  LGT SNOW  30  26  85 SE6       29.76F FOG
MARINETTE      LGT SNOW  32  31  96 S3        29.83  FOG
OCONTO         CLOUDY    32  32  99 CALM      29.83F
$$

WIZ017-030-035>037-045-050200-
CENTRAL WISCONSIN

CITY           SKY/WX    TMP DP  RH WIND       PRES   REMARKS
MEDFORD        CLOUDY    29  29  96 S10       29.75S FOG
WAUSAU         CLOUDY    30  29  96 S8        29.76F FOG
MOSINEE        NOT AVBL
MARSHFIELD     FRZ RAIN  30  29  96 S12       29.76F FOG
WISC RAPIDS    CLOUDY    31  31 100 SW9       29.81F
STEVENS POINT  CLOUDY    29  29 100 SW8       29.80F FOG
WAUPACA        CLOUDY    32  31  95 CALM      29.82F FOG
SHAWANO        RAIN      32  31  95 CALM      29.82F
CLINTONVILLE   LGT SNOW  32  30  93 S6        29.82F
WAUTOMA        FLURRIES  31  29  92 S6        29.83F
$$

WIZ038-039-048-051-050200-
FOX VALLEY

CITY           SKY/WX    TMP DP  RH WIND       PRES   REMARKS
NWS GREEN BAY  LGT SNOW  33  33 100 S6        29.83F FOG
APPLETON       LGT SNOW  30  30 100 S9        29.81F
OSHKOSH        LGT SNOW  31  29  92 S9        29.83F FOG
FOND DU LAC    LGT SNOW  31  28  89 S9        29.84F FOG
$$

WIZ022-050-052-050200-
EAST CENTRAL WISCONSIN

CITY           SKY/WX    TMP DP  RH WIND       PRES   REMARKS
EPHRAIM        LGT SNOW  31  31 100 CALM      29.82F
WASHINGTON ISL LGT SNOW  32  32  99 CALM      29.82F
STURGEON BAY   LGT SNOW  32  30  92 CALM      29.83F FOG
MANITOWOC      LGT SNOW N/A N/A N/A MISG      29.85S
SHEBOYGAN      LGT SNOW  32  30  92 SW8       29.85S FOG
$$

LMZ563-521-522-541>543-050200-
LAKESHORE

STATION/POSITION TIME  TEMP    WIND        PRES    VSBY  WAVE
                       AIR SEA DIR/SP/G                  HT/PER
                 (UTC) (F)     (DEG/KT/KT) (MB)    (MI)  (FT/S)
SHEBOYGAN LKSHOR 0100   33     220/ 10/ 11 1011.3F
KEWAUNEE LKSHORE 0048   33        CALM     1010.2F
ALGOMA MARINA    0036          220/  1/  3   N/A
SISTER BAY LKSHO 0038   32        CALM       N/A
CHAMBERS ISLAND  0030   33     120/  2/  4 1009.8F
MENOMINEE LKSHOR 0048   33     210/  5/  6 1009.4F
$$



USA.gov is the U.S. government's official web portal to all federal, state and local government web resources and services.